Terminal Aerodrome Forecast
Issued by NWS Wilmington, OH

Current Version | Previous Version | Graphics & Text | Print | Product List | Glossary On
Versions: 1 2 3 4 5 6 7 8 9 10 11 12 13 14 15 16 17 18 19 20 21 22 23 24 25
000
FTUS41 KILN 231900 AAA
TAFCVG
TAF AMD
KCVG 231907Z 2319/2424 17006KT 3SM BR OVC006
      TEMPO 2319/2322 1 1/2SM BR OVC003
     FM232300 11003KT 4SM -SHRA BR OVC005
     FM240600 15006KT 5SM BR OVC010
     FM240900 14009KT 4SM -SHRA BR OVC006
     FM241600 20013G22KT P6SM VCSH OVC012
     FM241700 24018G32KT P6SM VCSH BKN020=

USA.gov is the U.S. government's official web portal to all federal, state and local government web resources and services.